This demonstration page uses our WeatherBlox Daily Observations layout. Learn more.

Left ArrowRight Arrow

Hourly Observations for March 21, 2019

Temp ( °F °C ) Dew Point ( °F °C ) Humidity (%) Winds ( mph kmh ) Pressure ( in mb ) Visibility ( mi km ) Precip ( " mm )
12:51 am 00:51 Mostly Cloudy 65 18.3 34 1.1 32 32 ESE 10 17 29.86 1011 10 16 N/A
1:51 am 01:51 Cloudy 64 17.8 34 1.1 33 33 ESE 12 19 29.87 1011 10 16 N/A
2:51 am 02:51 Mostly Clear 61 16.1 35 1.7 38 38 SSE 6 9 29.87 1012 10 16 N/A
3:51 am 03:51 Clear 56 13.3 28 -2.2 34 34 SW 6 9 29.89 1012 10 16 N/A
4:51 am 04:51 Clear 51 10.6 31 -0.6 46 46 E 5 7 29.92 1013 10 16 N/A
5:51 am 05:51 Clear 49 9.4 32 undefined 52 52 SSE 7 11 29.95 1014 10 16 N/A
6:51 am 06:51 Sunny 49 9.4 35 1.7 59 59 ENE 6 9 29.96 1014 10 16 N/A
7:51 am 07:51 Sunny 56 13.3 36 2.2 47 47 SE 10 17 29.96 1015 10 16 N/A
8:51 am 08:51 Sunny 59 15 36 2.2 42 42 VRB 5 7 29.98 1015 10 16 N/A
9:51 am 09:51 Sunny 64 17.8 39 3.9 40 40 WNW 6 9 29.96 1015 10 16 N/A
10:51 am 10:51 Sunny 66 18.9 37 2.8 34 34 NW 8 13 29.95 1014 10 16 N/A
11:51 am 11:51 Sunny 66 18.9 33 0.6 29 29 W 5 7 29.94 1014 10 16 N/A
12:51 pm 12:51 Sunny 68 20 30 -1.1 24 24 VRB 7 11 29.92 1013 10 16 N/A
1:51 pm 13:51 Sunny 70 21.1 29 -1.7 22 22 W 10 17 29.90 1012 10 16 N/A
2:51 pm 14:51 Sunny 69 20.6 29 -1.7 22 22 WNW 7 11 29.88 1012 10 16 N/A
3:51 pm 15:51 Sunny 67 19.4 32 undefined 27 27 WNW 10 17 29.88 1012 10 16 N/A
4:51 pm 16:51 Sunny 66 18.9 33 0.6 29 29 WNW 15 24 29.89 1012 10 16 N/A
6:51 pm 18:51 Mostly Cloudy 60 15.6 31 -0.6 33 33 NW 15 24 29.92 1013 10 16 N/A
7:51 pm 19:51 Cloudy 59 15 30 -1.1 33 33 NW 16 26 29.92 1013 10 16 N/A
8:51 pm 20:51 Partly Cloudy 58 14.4 29 -1.7 33 33 NW 10 17 29.93 1014 10 16 N/A
9:51 pm 21:51 Mostly Clear 58 14.4 20 -6.7 23 23 NW 13 20 29.93 1014 10 16 N/A
10:51 pm 22:51 Clear 53 11.7 26 -3.3 35 35 W 9 15 29.93 1014 10 16 N/A
11:51 pm 23:51 Clear 51 10.6 27 -2.8 39 39 WNW 6 9 29.94 1014 10 16 N/A

Powered by AerisWeather